Home > Weather > Cagliari > Past weeks

Flag for Italy Past Weather in Cagliari, Italy — Yesterday and Last 2 Weeks

Now
73 °F

Sunny.


Feels Like: 75 °F
Forecast: 68 / 89 °F
Wind: 10 mph from Northwest

Location: Cagliari / Elmas

Current Time: Jul 24, 2016 at 8:58:56 AM

Latest Report: Jul 24, 2016 at 8:20 AM


Visibility: 10 mi

Pressure: 29.98 "Hg

Humidity: 74%

Dew Point: 64 °F

Location of CagliariLocation

Past Weather in Cagliari — Graph

°F

Cagliari Temperature Yesterday

Maximum temperature yesterday: 90 °F (at 12:50 PM)
Minimum temperature yesterday: 73 °F (at 10:20 PM)
Average temperature yesterday: 82 °F

High & Low Weather Summary for the Past Weeks

 TemperatureHumidityPressure
High95 °F (Jul 13, 1:50 PM)100% (Jul 20, 1:20 AM)32.81 "Hg (Jul 20, 1:20 AM)
Low59 °F (Jul 17, 6:20 AM)18% (Jul 16, 1:20 PM)29.83 "Hg (Jul 13, 3:20 PM)
Average77 °F57%30.00 "Hg
* Reported Jul 9 7:20 AM — Jul 24 7:50 AM, Cagliari, Weather by CustomWeather, © 2016

Note: Actual official high and low records may vary slightly from our data, if they occured in-between our weather recording intervals... More about our weather records

Advertising

Cagliari Weather History for the Previous 24 Hours

Scroll right to see more
 ConditionsComfort  
Time TempWeatherWind HumidityBarometerVisibility
7:50 AM
Sun, Jul 24
72 °FSunny.7 mph78%29.98 "Hg10 mi
7:20 AM70 °FSunny.7 mph83%29.98 "Hg10 mi
6:50 AM68 °FClear.8 mph88%29.98 "Hg10 mi
6:20 AM68 °FClear.6 mph88%29.98 "Hg10 mi
5:50 AM68 °FClear.7 mph88%29.98 "Hg10 mi
5:20 AM68 °FClear.7 mph88%29.98 "Hg10 mi
4:50 AM68 °FClear.7 mph88%29.98 "Hg10 mi
4:20 AM70 °FClear.7 mph73%29.98 "Hg10 mi
3:50 AM70 °FClear.8 mph88%29.98 "Hg10 mi
3:20 AM70 °FClear.7 mph88%29.98 "Hg10 mi
2:50 AM70 °FClear.6 mph83%29.98 "Hg10 mi
2:20 AM70 °FClear.8 mph88%30.01 "Hg10 mi
1:50 AM72 °FClear.6 mph83%30.01 "Hg10 mi
1:20 AM72 °FPassing clouds.5 mph83%30.01 "HgN/A
12:50 AM72 °FClear.12 mph83%29.98 "Hg10 mi
12:20 AM73 °FClear.16 mph78%30.01 "Hg10 mi
11:50 PM
Sat, Jul 23
73 °FClear.17 mph74%29.98 "Hg10 mi
11:20 PM73 °FClear.14 mph74%29.98 "Hg10 mi
10:50 PM73 °FClear.15 mph74%29.98 "Hg10 mi
10:20 PM73 °FClear.14 mph74%29.98 "Hg10 mi
9:50 PM75 °FClear.16 mph74%29.98 "Hg10 mi
9:20 PM75 °FSunny.15 mph74%29.95 "Hg10 mi
8:50 PM77 °FSunny.16 mph69%29.95 "Hg10 mi
8:20 PM79 °FSunny.17 mph65%29.92 "Hg10 mi
7:50 PM79 °FSunny.17 mph61%29.92 "Hg10 mi
7:20 PM81 °FSunny.21 mph58%29.92 "Hg10 mi
6:50 PM82 °FSunny.24 mph51%29.92 "Hg10 mi
6:20 PM86 °FSunny.21 mph46%29.89 "Hg10 mi
5:50 PM88 °FPassing clouds.17 mph46%29.89 "HgN/A
5:20 PM90 °FPassing clouds.13 mph49%29.89 "HgN/A
4:50 PM86 °FPassing clouds.9 mph62%29.89 "HgN/A
4:20 PM88 °FPassing clouds.9 mph59%29.89 "HgN/A
3:50 PM88 °FPassing clouds.9 mph59%29.89 "HgN/A
3:20 PM86 °FPassing clouds.12 mph59%29.89 "HgN/A
2:50 PM86 °FPassing clouds.12 mph59%29.89 "HgN/A
2:20 PM86 °FPassing clouds.10 mph62%29.89 "HgN/A
1:50 PM86 °FPassing clouds.10 mph62%29.89 "HgN/A
1:20 PM90 °FPassing clouds.8 mph55%29.89 "HgN/A
12:50 PM90 °FSunny.5 mph49%29.89 "Hg10 mi
12:20 PM88 °FSunny.6 mph52%29.92 "Hg10 mi
11:50 AM88 °FSunny.5 mph52%29.92 "Hg10 mi
11:20 AM84 °FPassing clouds.6 mph62%29.92 "HgN/A
10:50 AM82 °FScattered clouds.7 mph70%29.95 "HgN/A
10:20 AM82 °FScattered clouds.6 mph70%29.92 "HgN/A
9:50 AM79 °FScattered clouds.9 mph79%29.92 "HgN/A
9:20 AM81 °FSunny.14 mph70%29.92 "Hg10 mi
8:50 AM82 °FSunny.13 mph62%29.89 "Hg10 mi
8:20 AM82 °FSunny.13 mph62%29.86 "Hg10 mi
Weather by CustomWeather, © 2016

See weather overviewHow to use our weather pages